Regional Weather Roundup
Issued by NWS Raleigh/Durham, NC

Home | Current Version | Previous Version | Text Only | Print | Product List | Glossary On
Versions: 1 2 3 4 5 6 7 8 9 10 11 12 13 14 15 16 17 18 19 20 21 22 23 24 25 26 27 28 29 30 31 32 33 34 35 36 37 38 39 40 41 42 43 44 45 46 47 48 49 50
000
ASUS42 KRAH 210610
RWRRAH
NORTH CAROLINA WEATHER ROUNDUP
NATIONAL WEATHER SERVICE RALEIGH NC
200 AM EDT THU AUG 21 2014

NOTE: "FAIR" INDICATES FEW OR NO CLOUDS BELOW 12,000 FEET WITH NO
SIGNIFICANT WEATHER AND/OR OBSTRUCTIONS TO VISIBILITY.

NCZ001-053-055-056-065-067-210700-
WESTERN NORTH CAROLINA

CITY           SKY/WX    TMP DP  RH WIND       PRES   REMARKS
ASHEVILLE      FAIR      68  61  78 N10       30.15F
JEFFERSON      FAIR      69  53  57 CALM      30.16F
MORGANTON      FAIR      68  65  92 CALM      30.10R
HICKORY        FAIR      73  64  73 N6        30.05R
RUTHERFORDTON  FAIR      70  69  95 CALM      30.06S
MOUNT AIRY     FAIR      72  69  90 CALM      30.07R
BOONE          FAIR      66  57  71 W12G17    30.18R
$$

NCZ021-022-025-041-071-084-088-210700-
CENTRAL NORTH CAROLINA

CITY           SKY/WX    TMP DP  RH WIND       PRES   REMARKS
CHARLOTTE      CLOUDY    75  68  78 S3        30.02F
GREENSBORO     MOCLDY    74  71  91 CALM      30.02F
WINSTON-SALEM  FAIR      73  69  87 CALM      30.04S
RALEIGH-DURHAM FAIR      75  71  87 S3        30.01F
FORT BRAGG     FAIR      78  74  87 CALM      30.00F
FAYETTEVILLE   FAIR      76  73  91 CALM      30.00F
BURLINGTON     FAIR      74  70  87 SW3       30.01F
LAURINBURG     FAIR      73  72  96 CALM      30.02S FOG
$$

NCZ011-015-027-028-043-044-047-080-103-210700-
NORTHEASTERN NORTH CAROLINA

CITY           SKY/WX    TMP DP  RH WIND       PRES   REMARKS
ROCKY MT-WILSO FAIR      73  71  93 CALM      30.00F FOG
GREENVILLE     FAIR      77  75  94 S3        30.01F
WASHINGTON     FAIR      76  74  95 S3        30.00F
ELIZABETH CITY FAIR      73  71  93 CALM      30.01S FOG
MANTEO         FAIR      75  72  88 CALM      30.02R
CAPE HATTERAS  FAIR      74  73  97 SE5       30.01F
$$

NCZ078-087-090-091-093-098-101-210700-
SOUTHEASTERN NORTH CAROLINA

CITY           SKY/WX    TMP DP  RH WIND       PRES   REMARKS
LUMBERTON      FAIR      75  74  96 CALM      30.01S FOG
GOLDSBORO      FAIR      76  75  98 S3        29.98F
KINSTON        FAIR      75  74  96 CALM      30.01F
KENANSVILLE    FAIR      72  70  96 CALM      30.01F FOG
NEW BERN       FAIR      77  73  87 S3        30.02F
CHERRY POINT   CLEAR     75  73  93 CALM      30.02F
BEAUFORT       FAIR      79  76  90 CALM      30.01F
JACKSONVILLE   FAIR      75  74  96 CALM      30.01F FOG
WILMINGTON     FAIR      74  73  97 CALM      30.01F FOG
$$



USA.gov is the U.S. government's official web portal to all federal, state and local government web resources and services.